TimeMST,TemperatureF,Dew PointF,Humidity,Sea Level PressureIn,VisibilityMPH,Wind Direction,Wind SpeedMPH,Gust SpeedMPH,PrecipitationIn,Events,Conditions,WindDirDegrees,DateUTC
12:53 AM,27.0,25.0,92,30.29,10.0,East,4.6,-,N/A,,Clear,100,2012-02-10 07:53:00
1:53 AM,27.0,24.1,89,30.27,10.0,ESE,9.2,-,N/A,,Partly Cloudy,120,2012-02-10 08:53:00
2:53 AM,27.0,23.0,85,30.26,10.0,ESE,10.4,-,N/A,,Clear,120,2012-02-10 09:53:00
3:53 AM,28.0,23.0,81,30.27,10.0,ESE,6.9,-,N/A,,Partly Cloudy,110,2012-02-10 10:53:00
4:53 AM,27.0,21.9,81,30.26,10.0,ESE,6.9,-,N/A,,Clear,110,2012-02-10 11:53:00
5:53 AM,28.0,21.9,78,30.28,10.0,ESE,8.1,-,N/A,,Scattered Clouds,110,2012-02-10 12:53:00
6:53 AM,28.0,21.9,78,30.31,10.0,ESE,6.9,-,N/A,,Mostly Cloudy,120,2012-02-10 13:53:00
7:53 AM,28.9,21.9,75,30.31,10.0,ESE,9.2,-,N/A,,Mostly Cloudy,110,2012-02-10 14:53:00
8:53 AM,32.0,23.0,69,30.32,10.0,ESE,9.2,-,N/A,,Mostly Cloudy,110,2012-02-10 15:53:00
9:53 AM,34.0,23.0,64,30.33,10.0,SSE,6.9,-,N/A,,Mostly Cloudy,160,2012-02-10 16:53:00
10:53 AM,37.9,25.0,60,30.31,10.0,East,3.5,-,N/A,,Scattered Clouds,90,2012-02-10 17:53:00
11:53 AM,42.1,25.0,51,30.26,10.0,East,6.9,-,N/A,,Mostly Cloudy,100,2012-02-10 18:53:00
12:53 PM,42.1,24.1,49,30.25,10.0,Calm,Calm,-,N/A,,Overcast,0,2012-02-10 19:53:00
1:53 PM,45.0,23.0,42,30.21,10.0,West,3.5,-,N/A,,Overcast,280,2012-02-10 20:53:00
2:53 PM,45.0,24.1,44,30.20,10.0,North,6.9,-,N/A,,Overcast,360,2012-02-10 21:53:00
3:53 PM,44.1,25.0,47,30.19,10.0,NW,6.9,-,N/A,,Overcast,320,2012-02-10 22:53:00
4:53 PM,43.0,25.0,49,30.20,10.0,NW,6.9,-,N/A,,Overcast,310,2012-02-10 23:53:00
5:53 PM,41.0,26.1,55,30.19,10.0,West,4.6,-,N/A,,Overcast,280,2012-02-11 00:53:00
6:53 PM,41.0,26.1,55,30.19,10.0,Calm,Calm,-,N/A,,Overcast,0,2012-02-11 01:53:00
7:53 PM,37.0,28.0,70,30.21,10.0,Calm,Calm,-,N/A,,Overcast,0,2012-02-11 02:53:00
8:53 PM,33.1,25.0,72,30.22,10.0,NE,3.5,-,N/A,,Clear,50,2012-02-11 03:53:00
9:53 PM,33.1,25.0,72,30.22,10.0,Calm,Calm,-,N/A,,Mostly Cloudy,0,2012-02-11 04:53:00
10:53 PM,30.9,24.1,76,30.21,10.0,ENE,3.5,-,N/A,,Clear,70,2012-02-11 05:53:00
11:53 PM,32.0,24.1,73,30.19,10.0,East,3.5,-,N/A,,Scattered Clouds,80,2012-02-11 06:53:00